owner,sensor,date,latitude,longitude,vertical_datum,sea_water_practical_salinity,qcFlag 
DISL,ioos:station:DISL:MHPA:1,2017-02-01T00:00:00Z,30.6671,-87.9365,1.097,0.1,1111122 
DISL,ioos:station:DISL:MHPA:1,2017-02-01T00:30:00Z,30.6671,-87.9365,1.089,0.1,1111122 
DISL,ioos:station:DISL:MHPA:1,2017-02-01T01:00:00Z,30.6671,-87.9365,1.079,0.1,1111122 
DISL,ioos:station:DISL:MHPA:1,2017-02-01T01:30:00Z,30.6671,-87.9365,1.07,0.09,1111122 
DISL,ioos:station:DISL:MHPA:1,2017-02-01T02:00:00Z,30.6671,-87.9365,1.07,0.1,1111122 
DISL,ioos:station:DISL:MHPA:1,2017-02-01T02:30:00Z,30.6671,-87.9365,1.077,0.1,1111122 
DISL,ioos:station:DISL:MHPA:1,2017-02-01T03:00:00Z,30.6671,-87.9365,1.076,0.1,1111122 
DISL,ioos:station:DISL:MHPA:1,2017-02-01T03:30:00Z,30.6671,-87.9365,1.089,0.1,1111122 
DISL,ioos:station:DISL:MHPA:1,2017-02-01T04:00:00Z,30.6671,-87.9365,1.095,0.1,1111122 
DISL,ioos:station:DISL:MHPA:1,2017-02-01T04:30:00Z,30.6671,-87.9365,1.103,0.1,1111122 
DISL,ioos:station:DISL:MHPA:1,2017-02-01T05:00:00Z,30.6671,-87.9365,1.116,0.1,1111122 
DISL,ioos:station:DISL:MHPA:1,2017-02-01T05:30:00Z,30.6671,-87.9365,1.132,0.1,1111122 
DISL,ioos:station:DISL:MHPA:1,2017-02-01T06:00:00Z,30.6671,-87.9365,1.135,0.1,1111122 
DISL,ioos:station:DISL:MHPA:1,2017-02-01T06:30:00Z,30.6671,-87.9365,1.141,0.1,1111122 
DISL,ioos:station:DISL:MHPA:1,2017-02-01T07:00:00Z,30.6671,-87.9365,1.144,0.1,1111122 
DISL,ioos:station:DISL:MHPA:1,2017-02-01T07:30:00Z,30.6671,-87.9365,1.154,0.1,1111122 
DISL,ioos:station:DISL:MHPA:1,2017-02-01T08:00:00Z,30.6671,-87.9365,1.15,0.1,1111122 
DISL,ioos:station:DISL:MHPA:1,2017-02-01T08:30:00Z,30.6671,-87.9365,1.148,0.1,1111122 
DISL,ioos:station:DISL:MHPA:1,2017-02-01T09:00:00Z,30.6671,-87.9365,1.139,0.1,1111122 
DISL,ioos:station:DISL:MHPA:1,2017-02-01T09:30:00Z,30.6671,-87.9365,1.124,0.1,1111122 
DISL,ioos:station:DISL:MHPA:1,2017-02-01T10:00:00Z,30.6671,-87.9365,1.113,0.1,1111122 
DISL,ioos:station:DISL:MHPA:1,2017-02-01T10:30:00Z,30.6671,-87.9365,1.096,0.09,1111122 
DISL,ioos:station:DISL:MHPA:1,2017-02-01T11:00:00Z,30.6671,-87.9365,1.075,0.09,1111122 
DISL,ioos:station:DISL:MHPA:1,2017-02-01T11:30:00Z,30.6671,-87.9365,1.058,0.09,1111122 
DISL,ioos:station:DISL:MHPA:1,2017-02-01T12:00:00Z,30.6671,-87.9365,1.035,0.09,1111122 
DISL,ioos:station:DISL:MHPA:1,2017-02-01T12:30:00Z,30.6671,-87.9365,1.013,0.09,1111122 
DISL,ioos:station:DISL:MHPA:1,2017-02-01T13:00:00Z,30.6671,-87.9365,0.991,0.09,1111122 
DISL,ioos:station:DISL:MHPA:1,2017-02-01T13:30:00Z,30.6671,-87.9365,0.971,0.09,1111122 
DISL,ioos:station:DISL:MHPA:1,2017-02-01T14:00:00Z,30.6671,-87.9365,0.952,0.09,1111122 
DISL,ioos:station:DISL:MHPA:1,2017-02-01T14:30:00Z,30.6671,-87.9365,0.936,0.09,1111122 
DISL,ioos:station:DISL:MHPA:1,2017-02-01T15:00:00Z,30.6671,-87.9365,0.923,0.09,1111122 
DISL,ioos:station:DISL:MHPA:1,2017-02-01T15:30:00Z,30.6671,-87.9365,0.912,0.09,1111122 
DISL,ioos:station:DISL:MHPA:1,2017-02-01T16:00:00Z,30.6671,-87.9365,0.902,0.09,1111122 
DISL,ioos:station:DISL:MHPA:1,2017-02-01T16:30:00Z,30.6671,-87.9365,0.897,0.09,1111122 
DISL,ioos:station:DISL:MHPA:1,2017-02-01T17:00:00Z,30.6671,-87.9365,0.901,0.09,1111122 
DISL,ioos:station:DISL:MHPA:1,2017-02-01T17:30:00Z,30.6671,-87.9365,0.915,0.09,1111122 
DISL,ioos:station:DISL:MHPA:1,2017-02-01T18:00:00Z,30.6671,-87.9365,0.941,0.1,1111122 
DISL,ioos:station:DISL:MHPA:1,2017-02-01T18:30:00Z,30.6671,-87.9365,0.959,0.1,1111122 
DISL,ioos:station:DISL:MHPA:1,2017-02-01T19:00:00Z,30.6671,-87.9365,0.978,0.1,1111122 
DISL,ioos:station:DISL:MHPA:1,2017-02-01T19:30:00Z,30.6671,-87.9365,1.003,0.1,1111122 
DISL,ioos:station:DISL:MHPA:1,2017-02-01T20:00:00Z,30.6671,-87.9365,1.042,0.1,1111122 
DISL,ioos:station:DISL:MHPA:1,2017-02-01T20:30:00Z,30.6671,-87.9365,1.063,0.1,1111122 
DISL,ioos:station:DISL:MHPA:1,2017-02-01T21:00:00Z,30.6671,-87.9365,1.088,0.1,1111122 
DISL,ioos:station:DISL:MHPA:1,2017-02-01T21:30:00Z,30.6671,-87.9365,1.11,0.1,1111122 
DISL,ioos:station:DISL:MHPA:1,2017-02-01T22:00:00Z,30.6671,-87.9365,1.127,0.1,1111122 
DISL,ioos:station:DISL:MHPA:1,2017-02-01T22:30:00Z,30.6671,-87.9365,1.145,0.1,1111122 
DISL,ioos:station:DISL:MHPA:1,2017-02-01T23:00:00Z,30.6671,-87.9365,1.159,0.1,1111122 
DISL,ioos:station:DISL:MHPA:1,2017-02-01T23:30:00Z,30.6671,-87.9365,1.172,0.1,1111122 
DISL,ioos:station:DISL:MHPA:1,2017-02-02T00:00:00Z,30.6671,-87.9365,1.16,0.1,1111122 
DISL,ioos:station:DISL:MHPA:1,2017-02-02T00:30:00Z,30.6671,-87.9365,1.149,0.1,1111122 
DISL,ioos:station:DISL:MHPA:1,2017-02-02T01:00:00Z,30.6671,-87.9365,1.127,0.1,1111122 
DISL,ioos:station:DISL:MHPA:1,2017-02-02T01:30:00Z,30.6671,-87.9365,1.113,0.1,1111122 
DISL,ioos:station:DISL:MHPA:1,2017-02-02T02:00:00Z,30.6671,-87.9365,1.092,0.1,1111122 
DISL,ioos:station:DISL:MHPA:1,2017-02-02T02:30:00Z,30.6671,-87.9365,1.083,0.1,1111122 
DISL,ioos:station:DISL:MHPA:1,2017-02-02T03:00:00Z,30.6671,-87.9365,1.055,0.1,1111122 
DISL,ioos:station:DISL:MHPA:1,2017-02-02T03:30:00Z,30.6671,-87.9365,1.039,0.1,1111122 
DISL,ioos:station:DISL:MHPA:1,2017-02-02T04:00:00Z,30.6671,-87.9365,1.031,0.1,1111122 
DISL,ioos:station:DISL:MHPA:1,2017-02-02T04:30:00Z,30.6671,-87.9365,1.03,0.1,1111122 
DISL,ioos:station:DISL:MHPA:1,2017-02-02T05:00:00Z,30.6671,-87.9365,1.025,0.1,1111122 
DISL,ioos:station:DISL:MHPA:1,2017-02-02T05:30:00Z,30.6671,-87.9365,1.027,0.1,1111122 
DISL,ioos:station:DISL:MHPA:1,2017-02-02T06:00:00Z,30.6671,-87.9365,1.038,0.1,1111122 
DISL,ioos:station:DISL:MHPA:1,2017-02-02T06:30:00Z,30.6671,-87.9365,1.041,0.1,1111122 
DISL,ioos:station:DISL:MHPA:1,2017-02-02T07:00:00Z,30.6671,-87.9365,1.042,0.1,1111122 
DISL,ioos:station:DISL:MHPA:1,2017-02-02T07:30:00Z,30.6671,-87.9365,1.044,0.1,1111122 
DISL,ioos:station:DISL:MHPA:1,2017-02-02T08:00:00Z,30.6671,-87.9365,1.048,0.1,1111122 
DISL,ioos:station:DISL:MHPA:1,2017-02-02T08:30:00Z,30.6671,-87.9365,1.044,0.1,1111122 
DISL,ioos:station:DISL:MHPA:1,2017-02-02T09:00:00Z,30.6671,-87.9365,1.04,0.1,1111122 
DISL,ioos:station:DISL:MHPA:1,2017-02-02T09:30:00Z,30.6671,-87.9365,1.047,0.1,1111122 
DISL,ioos:station:DISL:MHPA:1,2017-02-02T10:00:00Z,30.6671,-87.9365,1.046,0.1,1111122 
DISL,ioos:station:DISL:MHPA:1,2017-02-02T10:30:00Z,30.6671,-87.9365,1.04,0.1,1111122 
DISL,ioos:station:DISL:MHPA:1,2017-02-02T11:00:00Z,30.6671,-87.9365,1.046,0.1,1111122 
DISL,ioos:station:DISL:MHPA:1,2017-02-02T11:30:00Z,30.6671,-87.9365,1.035,0.1,1111122 
DISL,ioos:station:DISL:MHPA:1,2017-02-02T12:00:00Z,30.6671,-87.9365,1.031,0.1,1111122 
DISL,ioos:station:DISL:MHPA:1,2017-02-02T12:30:00Z,30.6671,-87.9365,1.029,0.1,1111122 
DISL,ioos:station:DISL:MHPA:1,2017-02-02T13:00:00Z,30.6671,-87.9365,1.012,0.1,1111122 
DISL,ioos:station:DISL:MHPA:1,2017-02-02T14:00:00Z,30.6671,-87.9365,0.976,0.1,1111122 
DISL,ioos:station:DISL:MHPA:1,2017-02-02T14:30:00Z,30.6671,-87.9365,0.959,0.1,1111122 
DISL,ioos:station:DISL:MHPA:1,2017-02-02T15:00:00Z,30.6671,-87.9365,0.945,0.1,1111122 
DISL,ioos:station:DISL:MHPA:1,2017-02-02T15:30:00Z,30.6671,-87.9365,0.938,0.1,1111122 
DISL,ioos:station:DISL:MHPA:1,2017-02-02T16:00:00Z,30.6671,-87.9365,0.931,0.1,1111122 
DISL,ioos:station:DISL:MHPA:1,2017-02-02T16:30:00Z,30.6671,-87.9365,0.932,0.1,1111122 
DISL,ioos:station:DISL:MHPA:1,2017-02-02T17:00:00Z,30.6671,-87.9365,0.947,0.1,1111122 
DISL,ioos:station:DISL:MHPA:1,2017-02-02T17:30:00Z,30.6671,-87.9365,0.965,0.1,1111122 
DISL,ioos:station:DISL:MHPA:1,2017-02-02T18:00:00Z,30.6671,-87.9365,0.981,0.1,1111122 
DISL,ioos:station:DISL:MHPA:1,2017-02-02T18:30:00Z,30.6671,-87.9365,1.007,0.1,1111122 
DISL,ioos:station:DISL:MHPA:1,2017-02-02T19:00:00Z,30.6671,-87.9365,1.046,0.1,1111122 
DISL,ioos:station:DISL:MHPA:1,2017-02-02T19:30:00Z,30.6671,-87.9365,1.055,0.1,1111122 
DISL,ioos:station:DISL:MHPA:1,2017-02-02T20:00:00Z,30.6671,-87.9365,1.073,0.1,1111122 
DISL,ioos:station:DISL:MHPA:1,2017-02-02T20:30:00Z,30.6671,-87.9365,1.098,0.1,1111122 
DISL,ioos:station:DISL:MHPA:1,2017-02-02T21:00:00Z,30.6671,-87.9365,1.132,0.1,1111122 
DISL,ioos:station:DISL:MHPA:1,2017-02-02T21:30:00Z,30.6671,-87.9365,1.139,0.1,1111122 
DISL,ioos:station:DISL:MHPA:1,2017-02-02T22:00:00Z,30.6671,-87.9365,1.153,0.1,1111122 
DISL,ioos:station:DISL:MHPA:1,2017-02-02T23:00:00Z,30.6671,-87.9365,1.172,0.1,1111122 
DISL,ioos:station:DISL:MHPA:1,2017-02-02T23:30:00Z,30.6671,-87.9365,1.187,0.1,1111122 
DISL,ioos:station:DISL:MHPA:1,2017-02-03T00:00:00Z,30.6671,-87.9365,1.192,0.1,1111122 
DISL,ioos:station:DISL:MHPA:1,2017-02-03T00:30:00Z,30.6671,-87.9365,1.178,0.1,1111122 
DISL,ioos:station:DISL:MHPA:1,2017-02-03T01:00:00Z,30.6671,-87.9365,1.167,0.1,1111122 
DISL,ioos:station:DISL:MHPA:1,2017-02-03T01:30:00Z,30.6671,-87.9365,1.136,0.1,1111122 
DISL,ioos:station:DISL:MHPA:1,2017-02-03T02:00:00Z,30.6671,-87.9365,1.121,0.1,1111122 
DISL,ioos:station:DISL:MHPA:1,2017-02-03T02:30:00Z,30.6671,-87.9365,1.098,0.1,1111122 
DISL,ioos:station:DISL:MHPA:1,2017-02-03T03:00:00Z,30.6671,-87.9365,1.063,0.1,1111122 
DISL,ioos:station:DISL:MHPA:1,2017-02-03T03:30:00Z,30.6671,-87.9365,1.04,0.1,1111122 
DISL,ioos:station:DISL:MHPA:1,2017-02-03T04:00:00Z,30.6671,-87.9365,1.018,0.1,1111122 
DISL,ioos:station:DISL:MHPA:1,2017-02-03T04:30:00Z,30.6671,-87.9365,0.995,0.1,1111122 
DISL,ioos:station:DISL:MHPA:1,2017-02-03T05:00:00Z,30.6671,-87.9365,0.972,0.1,1111122 
DISL,ioos:station:DISL:MHPA:1,2017-02-03T05:30:00Z,30.6671,-87.9365,0.96,0.1,1111122 
DISL,ioos:station:DISL:MHPA:1,2017-02-03T06:00:00Z,30.6671,-87.9365,0.959,0.11,1111122 
DISL,ioos:station:DISL:MHPA:1,2017-02-03T06:30:00Z,30.6671,-87.9365,0.956,0.11,1111122 
DISL,ioos:station:DISL:MHPA:1,2017-02-03T07:00:00Z,30.6671,-87.9365,0.955,0.11,1111122 
DISL,ioos:station:DISL:MHPA:1,2017-02-03T07:30:00Z,30.6671,-87.9365,0.95,0.12,1111122 
DISL,ioos:station:DISL:MHPA:1,2017-02-03T08:00:00Z,30.6671,-87.9365,0.947,0.12,1111122 
DISL,ioos:station:DISL:MHPA:1,2017-02-03T08:30:00Z,30.6671,-87.9365,0.947,0.12,1111122 
DISL,ioos:station:DISL:MHPA:1,2017-02-03T09:00:00Z,30.6671,-87.9365,0.941,0.13,1111122 
DISL,ioos:station:DISL:MHPA:1,2017-02-03T09:30:00Z,30.6671,-87.9365,0.93,0.13,1111122 
DISL,ioos:station:DISL:MHPA:1,2017-02-03T10:00:00Z,30.6671,-87.9365,0.923,0.13,1111122 
DISL,ioos:station:DISL:MHPA:1,2017-02-03T10:30:00Z,30.6671,-87.9365,0.933,0.13,1111122 
DISL,ioos:station:DISL:MHPA:1,2017-02-03T11:00:00Z,30.6671,-87.9365,0.937,0.13,1111122 
DISL,ioos:station:DISL:MHPA:1,2017-02-03T11:30:00Z,30.6671,-87.9365,0.941,0.13,1111122 
DISL,ioos:station:DISL:MHPA:1,2017-02-03T12:00:00Z,30.6671,-87.9365,0.967,0.13,1111122 
DISL,ioos:station:DISL:MHPA:1,2017-02-03T12:30:00Z,30.6671,-87.9365,0.965,0.13,1111122 
DISL,ioos:station:DISL:MHPA:1,2017-02-03T13:00:00Z,30.6671,-87.9365,0.959,0.13,1111122 
DISL,ioos:station:DISL:MHPA:1,2017-02-03T13:30:00Z,30.6671,-87.9365,0.962,0.13,1111122 
DISL,ioos:station:DISL:MHPA:1,2017-02-03T14:00:00Z,30.6671,-87.9365,0.953,0.13,1111122 
DISL,ioos:station:DISL:MHPA:1,2017-02-03T14:30:00Z,30.6671,-87.9365,0.936,0.13,1111122 
DISL,ioos:station:DISL:MHPA:1,2017-02-03T15:00:00Z,30.6671,-87.9365,0.93,0.13,1111122 
DISL,ioos:station:DISL:MHPA:1,2017-02-03T15:30:00Z,30.6671,-87.9365,0.929,0.13,1111122 
DISL,ioos:station:DISL:MHPA:1,2017-02-03T16:00:00Z,30.6671,-87.9365,0.924,0.13,1111122 
DISL,ioos:station:DISL:MHPA:1,2017-02-03T16:30:00Z,30.6671,-87.9365,0.918,0.13,1111122 
DISL,ioos:station:DISL:MHPA:1,2017-02-03T17:00:00Z,30.6671,-87.9365,0.914,0.13,1111122 
DISL,ioos:station:DISL:MHPA:1,2017-02-03T17:30:00Z,30.6671,-87.9365,0.895,0.13,1111122 
DISL,ioos:station:DISL:MHPA:1,2017-02-03T18:00:00Z,30.6671,-87.9365,0.879,0.13,1111122 
DISL,ioos:station:DISL:MHPA:1,2017-02-03T18:30:00Z,30.6671,-87.9365,0.877,0.13,1111122 
DISL,ioos:station:DISL:MHPA:1,2017-02-03T19:00:00Z,30.6671,-87.9365,0.869,0.13,1111122 
DISL,ioos:station:DISL:MHPA:1,2017-02-03T19:30:00Z,30.6671,-87.9365,0.871,0.13,1111122 
DISL,ioos:station:DISL:MHPA:1,2017-02-03T20:00:00Z,30.6671,-87.9365,0.862,0.13,1111122 
DISL,ioos:station:DISL:MHPA:1,2017-02-03T20:30:00Z,30.6671,-87.9365,0.874,0.13,1111122 
DISL,ioos:station:DISL:MHPA:1,2017-02-03T21:00:00Z,30.6671,-87.9365,0.887,0.13,1111122 
DISL,ioos:station:DISL:MHPA:1,2017-02-03T21:30:00Z,30.6671,-87.9365,0.871,0.13,1111122 
DISL,ioos:station:DISL:MHPA:1,2017-02-03T22:00:00Z,30.6671,-87.9365,0.863,0.13,1111122 
DISL,ioos:station:DISL:MHPA:1,2017-02-03T22:30:00Z,30.6671,-87.9365,0.861,0.13,1111122 
DISL,ioos:station:DISL:MHPA:1,2017-02-03T23:00:00Z,30.6671,-87.9365,0.848,0.13,1111122 
DISL,ioos:station:DISL:MHPA:1,2017-02-03T23:30:00Z,30.6671,-87.9365,0.836,0.13,1111122 
DISL,ioos:station:DISL:MHPA:1,2017-02-04T00:00:00Z,30.6671,-87.9365,0.828,0.13,1111122 
DISL,ioos:station:DISL:MHPA:1,2017-02-04T00:30:00Z,30.6671,-87.9365,0.855,0.13,1111122 
DISL,ioos:station:DISL:MHPA:1,2017-02-04T01:00:00Z,30.6671,-87.9365,0.882,0.13,1111122 
DISL,ioos:station:DISL:MHPA:1,2017-02-04T01:30:00Z,30.6671,-87.9365,0.877,0.13,1111122 
DISL,ioos:station:DISL:MHPA:1,2017-02-04T02:00:00Z,30.6671,-87.9365,0.856,0.13,1111122 
DISL,ioos:station:DISL:MHPA:1,2017-02-04T02:30:00Z,30.6671,-87.9365,0.841,0.13,1111122 
DISL,ioos:station:DISL:MHPA:1,2017-02-04T03:00:00Z,30.6671,-87.9365,0.857,0.13,1111122 
DISL,ioos:station:DISL:MHPA:1,2017-02-04T03:30:00Z,30.6671,-87.9365,0.852,0.13,1111122 
DISL,ioos:station:DISL:MHPA:1,2017-02-04T04:00:00Z,30.6671,-87.9365,0.826,0.13,1111122 
DISL,ioos:station:DISL:MHPA:1,2017-02-04T04:30:00Z,30.6671,-87.9365,0.793,0.13,1111122 
DISL,ioos:station:DISL:MHPA:1,2017-02-04T05:00:00Z,30.6671,-87.9365,0.76,0.13,1111122 
DISL,ioos:station:DISL:MHPA:1,2017-02-04T05:30:00Z,30.6671,-87.9365,0.73,0.13,1111122 
DISL,ioos:station:DISL:MHPA:1,2017-02-04T06:00:00Z,30.6671,-87.9365,0.703,0.13,1111122 
DISL,ioos:station:DISL:MHPA:1,2017-02-04T06:30:00Z,30.6671,-87.9365,0.678,0.13,1111122 
DISL,ioos:station:DISL:MHPA:1,2017-02-04T07:00:00Z,30.6671,-87.9365,0.657,0.13,1111122 
DISL,ioos:station:DISL:MHPA:1,2017-02-04T07:30:00Z,30.6671,-87.9365,0.639,0.13,1111122 
DISL,ioos:station:DISL:MHPA:1,2017-02-04T08:00:00Z,30.6671,-87.9365,0.623,0.13,1111122 
DISL,ioos:station:DISL:MHPA:1,2017-02-04T08:30:00Z,30.6671,-87.9365,0.609,0.13,1111122 
DISL,ioos:station:DISL:MHPA:1,2017-02-04T09:00:00Z,30.6671,-87.9365,0.595,0.13,1111122 
DISL,ioos:station:DISL:MHPA:1,2017-02-04T09:30:00Z,30.6671,-87.9365,0.583,0.13,1111122 
DISL,ioos:station:DISL:MHPA:1,2017-02-04T10:00:00Z,30.6671,-87.9365,0.571,0.13,1111122 
DISL,ioos:station:DISL:MHPA:1,2017-02-04T10:30:00Z,30.6671,-87.9365,0.56,0.13,1111122 
DISL,ioos:station:DISL:MHPA:1,2017-02-04T11:00:00Z,30.6671,-87.9365,0.55,0.13,1111122 
DISL,ioos:station:DISL:MHPA:1,2017-02-04T11:30:00Z,30.6671,-87.9365,0.542,0.14,1111122 
DISL,ioos:station:DISL:MHPA:1,2017-02-04T12:00:00Z,30.6671,-87.9365,0.535,0.14,1111122 
DISL,ioos:station:DISL:MHPA:1,2017-02-04T12:30:00Z,30.6671,-87.9365,0.53,0.14,1111122 
DISL,ioos:station:DISL:MHPA:1,2017-02-04T13:00:00Z,30.6671,-87.9365,0.53,0.14,1111122 
DISL,ioos:station:DISL:MHPA:1,2017-02-04T13:30:00Z,30.6671,-87.9365,0.533,0.14,1111122 
DISL,ioos:station:DISL:MHPA:1,2017-02-04T14:00:00Z,30.6671,-87.9365,0.539,0.14,1111122 
DISL,ioos:station:DISL:MHPA:1,2017-02-04T14:30:00Z,30.6671,-87.9365,0.551,0.14,1111122 
DISL,ioos:station:DISL:MHPA:1,2017-02-04T15:00:00Z,30.6671,-87.9365,0.567,0.14,1111122 
DISL,ioos:station:DISL:MHPA:1,2017-02-04T15:30:00Z,30.6671,-87.9365,0.591,0.14,1111122 
DISL,ioos:station:DISL:MHPA:1,2017-02-04T16:00:00Z,30.6671,-87.9365,0.631,0.14,1111122 
DISL,ioos:station:DISL:MHPA:1,2017-02-04T16:30:00Z,30.6671,-87.9365,0.707,0.14,1111122 
DISL,ioos:station:DISL:MHPA:1,2017-02-04T17:00:00Z,30.6671,-87.9365,0.796,0.14,1111122 
DISL,ioos:station:DISL:MHPA:1,2017-02-04T17:30:00Z,30.6671,-87.9365,0.849,0.14,1111122 
DISL,ioos:station:DISL:MHPA:1,2017-02-04T18:00:00Z,30.6671,-87.9365,0.886,0.14,1111122 
DISL,ioos:station:DISL:MHPA:1,2017-02-04T18:30:00Z,30.6671,-87.9365,0.933,0.14,1111122 
DISL,ioos:station:DISL:MHPA:1,2017-02-04T19:00:00Z,30.6671,-87.9365,0.98,0.14,1111122 
DISL,ioos:station:DISL:MHPA:1,2017-02-04T19:30:00Z,30.6671,-87.9365,1.007,0.15,1111122 
DISL,ioos:station:DISL:MHPA:1,2017-02-04T20:00:00Z,30.6671,-87.9365,1.044,0.16,1111122 
DISL,ioos:station:DISL:MHPA:1,2017-02-04T20:30:00Z,30.6671,-87.9365,1.069,0.15,1111122 
DISL,ioos:station:DISL:MHPA:1,2017-02-04T21:00:00Z,30.6671,-87.9365,1.091,0.13,1111122 
DISL,ioos:station:DISL:MHPA:1,2017-02-04T21:30:00Z,30.6671,-87.9365,1.119,0.13,1111122 
DISL,ioos:station:DISL:MHPA:1,2017-02-04T22:00:00Z,30.6671,-87.9365,1.147,0.13,1111122 
DISL,ioos:station:DISL:MHPA:1,2017-02-04T22:30:00Z,30.6671,-87.9365,1.173,0.13,1111122 
DISL,ioos:station:DISL:MHPA:1,2017-02-04T23:00:00Z,30.6671,-87.9365,1.19,0.12,1111122 
DISL,ioos:station:DISL:MHPA:1,2017-02-04T23:30:00Z,30.6671,-87.9365,1.201,0.12,1111122 
DISL,ioos:station:DISL:MHPA:1,2017-02-05T00:00:00Z,30.6671,-87.9365,1.203,0.12,1111122 
DISL,ioos:station:DISL:MHPA:1,2017-02-05T00:30:00Z,30.6671,-87.9365,1.213,0.12,1111122 
DISL,ioos:station:DISL:MHPA:1,2017-02-05T01:00:00Z,30.6671,-87.9365,1.199,0.12,1111122 
DISL,ioos:station:DISL:MHPA:1,2017-02-05T01:30:00Z,30.6671,-87.9365,1.186,0.12,1111122 
DISL,ioos:station:DISL:MHPA:1,2017-02-05T02:00:00Z,30.6671,-87.9365,1.182,0.13,1111122 
DISL,ioos:station:DISL:MHPA:1,2017-02-05T02:30:00Z,30.6671,-87.9365,1.159,0.13,1111122 
DISL,ioos:station:DISL:MHPA:1,2017-02-05T03:00:00Z,30.6671,-87.9365,1.13,0.13,1111122 
DISL,ioos:station:DISL:MHPA:1,2017-02-05T03:30:00Z,30.6671,-87.9365,1.091,0.13,1111122 
DISL,ioos:station:DISL:MHPA:1,2017-02-05T04:00:00Z,30.6671,-87.9365,1.055,0.12,1111122 
DISL,ioos:station:DISL:MHPA:1,2017-02-05T04:30:00Z,30.6671,-87.9365,1.017,0.13,1111122 
DISL,ioos:station:DISL:MHPA:1,2017-02-05T05:00:00Z,30.6671,-87.9365,0.979,0.12,1111122 
DISL,ioos:station:DISL:MHPA:1,2017-02-05T05:30:00Z,30.6671,-87.9365,0.943,0.12,1111122 
DISL,ioos:station:DISL:MHPA:1,2017-02-05T06:00:00Z,30.6671,-87.9365,0.91,0.12,1111122 
DISL,ioos:station:DISL:MHPA:1,2017-02-05T06:30:00Z,30.6671,-87.9365,0.881,0.12,1111122 
DISL,ioos:station:DISL:MHPA:1,2017-02-05T07:00:00Z,30.6671,-87.9365,0.855,0.13,1111122 
DISL,ioos:station:DISL:MHPA:1,2017-02-05T07:30:00Z,30.6671,-87.9365,0.831,0.13,1111122 
DISL,ioos:station:DISL:MHPA:1,2017-02-05T08:00:00Z,30.6671,-87.9365,0.809,0.13,1111122 
DISL,ioos:station:DISL:MHPA:1,2017-02-05T08:30:00Z,30.6671,-87.9365,0.787,0.13,1111122 
DISL,ioos:station:DISL:MHPA:1,2017-02-05T09:00:00Z,30.6671,-87.9365,0.767,0.13,1111122 
DISL,ioos:station:DISL:MHPA:1,2017-02-05T09:30:00Z,30.6671,-87.9365,0.755,0.13,1111122 
DISL,ioos:station:DISL:MHPA:1,2017-02-05T10:00:00Z,30.6671,-87.9365,0.74,0.13,1111122 
DISL,ioos:station:DISL:MHPA:1,2017-02-05T10:30:00Z,30.6671,-87.9365,0.724,0.13,1111122 
DISL,ioos:station:DISL:MHPA:1,2017-02-05T11:00:00Z,30.6671,-87.9365,0.714,0.13,1111122 
DISL,ioos:station:DISL:MHPA:1,2017-02-05T11:30:00Z,30.6671,-87.9365,0.712,0.13,1111122 
DISL,ioos:station:DISL:MHPA:1,2017-02-05T12:00:00Z,30.6671,-87.9365,0.719,0.13,1111122 
DISL,ioos:station:DISL:MHPA:1,2017-02-05T12:30:00Z,30.6671,-87.9365,0.724,0.13,1111122 
DISL,ioos:station:DISL:MHPA:1,2017-02-05T13:00:00Z,30.6671,-87.9365,0.748,0.13,1111122 
DISL,ioos:station:DISL:MHPA:1,2017-02-05T13:30:00Z,30.6671,-87.9365,0.773,0.13,1111122 
DISL,ioos:station:DISL:MHPA:1,2017-02-05T14:00:00Z,30.6671,-87.9365,0.795,0.13,1111122 
DISL,ioos:station:DISL:MHPA:1,2017-02-05T14:30:00Z,30.6671,-87.9365,0.823,0.13,1111122 
DISL,ioos:station:DISL:MHPA:1,2017-02-05T15:00:00Z,30.6671,-87.9365,0.862,0.13,1111122 
DISL,ioos:station:DISL:MHPA:1,2017-02-05T15:30:00Z,30.6671,-87.9365,0.9,0.13,1111122 
DISL,ioos:station:DISL:MHPA:1,2017-02-05T16:00:00Z,30.6671,-87.9365,0.933,0.13,1111122 
DISL,ioos:station:DISL:MHPA:1,2017-02-05T16:30:00Z,30.6671,-87.9365,0.962,0.13,1111122 
DISL,ioos:station:DISL:MHPA:1,2017-02-05T17:00:00Z,30.6671,-87.9365,1.007,0.13,1111122 
DISL,ioos:station:DISL:MHPA:1,2017-02-05T17:30:00Z,30.6671,-87.9365,1.047,0.13,1111122 
DISL,ioos:station:DISL:MHPA:1,2017-02-05T18:00:00Z,30.6671,-87.9365,1.066,0.13,1111122 
DISL,ioos:station:DISL:MHPA:1,2017-02-05T18:30:00Z,30.6671,-87.9365,1.08,0.13,1111122 
DISL,ioos:station:DISL:MHPA:1,2017-02-05T19:00:00Z,30.6671,-87.9365,1.089,0.13,1111122 
DISL,ioos:station:DISL:MHPA:1,2017-02-05T19:30:00Z,30.6671,-87.9365,1.109,0.13,1111122 
DISL,ioos:station:DISL:MHPA:1,2017-02-05T20:00:00Z,30.6671,-87.9365,1.124,0.13,1111122 
DISL,ioos:station:DISL:MHPA:1,2017-02-05T20:30:00Z,30.6671,-87.9365,1.145,0.14,1111122 
DISL,ioos:station:DISL:MHPA:1,2017-02-05T21:00:00Z,30.6671,-87.9365,1.165,0.14,1111122 
DISL,ioos:station:DISL:MHPA:1,2017-02-05T21:30:00Z,30.6671,-87.9365,1.188,0.14,1111122 
DISL,ioos:station:DISL:MHPA:1,2017-02-05T22:00:00Z,30.6671,-87.9365,1.224,0.14,1111122 
DISL,ioos:station:DISL:MHPA:1,2017-02-05T22:30:00Z,30.6671,-87.9365,1.237,0.14,1111122 
DISL,ioos:station:DISL:MHPA:1,2017-02-05T23:00:00Z,30.6671,-87.9365,1.251,0.14,1111122 
DISL,ioos:station:DISL:MHPA:1,2017-02-05T23:30:00Z,30.6671,-87.9365,1.268,0.14,1111122 
DISL,ioos:station:DISL:MHPA:1,2017-02-06T00:00:00Z,30.6671,-87.9365,1.25,0.14,1111122 
DISL,ioos:station:DISL:MHPA:1,2017-02-06T00:30:00Z,30.6671,-87.9365,1.241,0.14,1111122 
DISL,ioos:station:DISL:MHPA:1,2017-02-06T01:00:00Z,30.6671,-87.9365,1.224,0.14,1111122 
DISL,ioos:station:DISL:MHPA:1,2017-02-06T01:30:00Z,30.6671,-87.9365,1.202,0.14,1111122 
DISL,ioos:station:DISL:MHPA:1,2017-02-06T02:00:00Z,30.6671,-87.9365,1.176,0.14,1111122 
DISL,ioos:station:DISL:MHPA:1,2017-02-06T02:30:00Z,30.6671,-87.9365,1.147,0.14,1111122 
DISL,ioos:station:DISL:MHPA:1,2017-02-06T03:00:00Z,30.6671,-87.9365,1.132,0.14,1111122 
DISL,ioos:station:DISL:MHPA:1,2017-02-06T03:30:00Z,30.6671,-87.9365,1.097,0.14,1111122 
DISL,ioos:station:DISL:MHPA:1,2017-02-06T04:00:00Z,30.6671,-87.9365,1.07,0.14,1111122 
DISL,ioos:station:DISL:MHPA:1,2017-02-06T04:30:00Z,30.6671,-87.9365,1.04,0.14,1111122 
DISL,ioos:station:DISL:MHPA:1,2017-02-06T05:00:00Z,30.6671,-87.9365,1.007,0.14,1111122 
DISL,ioos:station:DISL:MHPA:1,2017-02-06T05:30:00Z,30.6671,-87.9365,0.974,0.14,1111122 
DISL,ioos:station:DISL:MHPA:1,2017-02-06T06:00:00Z,30.6671,-87.9365,0.942,0.15,1111122 
DISL,ioos:station:DISL:MHPA:1,2017-02-06T06:30:00Z,30.6671,-87.9365,0.909,0.15,1111122 
DISL,ioos:station:DISL:MHPA:1,2017-02-06T07:00:00Z,30.6671,-87.9365,0.878,0.15,1111122 
DISL,ioos:station:DISL:MHPA:1,2017-02-06T07:30:00Z,30.6671,-87.9365,0.847,0.15,1111122 
DISL,ioos:station:DISL:MHPA:1,2017-02-06T08:00:00Z,30.6671,-87.9365,0.817,0.15,1111122 
DISL,ioos:station:DISL:MHPA:1,2017-02-06T08:30:00Z,30.6671,-87.9365,0.792,0.15,1111122 
DISL,ioos:station:DISL:MHPA:1,2017-02-06T09:00:00Z,30.6671,-87.9365,0.767,0.15,1111122 
DISL,ioos:station:DISL:MHPA:1,2017-02-06T09:30:00Z,30.6671,-87.9365,0.742,0.15,1111122 
DISL,ioos:station:DISL:MHPA:1,2017-02-06T10:00:00Z,30.6671,-87.9365,0.719,0.15,1111122 
DISL,ioos:station:DISL:MHPA:1,2017-02-06T10:30:00Z,30.6671,-87.9365,0.699,0.15,1111122 
DISL,ioos:station:DISL:MHPA:1,2017-02-06T11:00:00Z,30.6671,-87.9365,0.681,0.15,1111122 
DISL,ioos:station:DISL:MHPA:1,2017-02-06T11:30:00Z,30.6671,-87.9365,0.668,0.15,1111122 
DISL,ioos:station:DISL:MHPA:1,2017-02-06T12:00:00Z,30.6671,-87.9365,0.659,0.15,1111122 
DISL,ioos:station:DISL:MHPA:1,2017-02-06T12:30:00Z,30.6671,-87.9365,0.654,0.15,1111122 
DISL,ioos:station:DISL:MHPA:1,2017-02-06T13:00:00Z,30.6671,-87.9365,0.654,0.15,1111122 
DISL,ioos:station:DISL:MHPA:1,2017-02-06T13:30:00Z,30.6671,-87.9365,0.657,0.15,1111122 
DISL,ioos:station:DISL:MHPA:1,2017-02-06T14:00:00Z,30.6671,-87.9365,0.662,0.15,1111122 
DISL,ioos:station:DISL:MHPA:1,2017-02-06T14:30:00Z,30.6671,-87.9365,0.679,0.16,1111122 
DISL,ioos:station:DISL:MHPA:1,2017-02-06T15:00:00Z,30.6671,-87.9365,0.709,0.16,1111122 
DISL,ioos:station:DISL:MHPA:1,2017-02-06T15:30:00Z,30.6671,-87.9365,0.755,0.15,1111122 
DISL,ioos:station:DISL:MHPA:1,2017-02-06T16:00:00Z,30.6671,-87.9365,0.811,0.15,1111122 
DISL,ioos:station:DISL:MHPA:1,2017-02-06T16:30:00Z,30.6671,-87.9365,0.869,0.15,1111122 
DISL,ioos:station:DISL:MHPA:1,2017-02-06T17:00:00Z,30.6671,-87.9365,0.919,0.15,1111122 